Regional Weather Roundup
Issued by NWS Portland, ME

Home | Current Version | Previous Version | Text Only | Print | Product List | Glossary On
Versions: 1 2 3 4 5 6 7 8 9 10 11 12 13 14 15 16 17 18 19 20 21 22 23 24 25 26 27 28 29 30 31 32 33 34 35 36 37 38 39 40 41 42 43 44 45 46 47 48 49 50
000
ASUS41 KGYX 201110
RWRGYX
WEATHER ROUNDUP FOR MAINE AND NEW HAMPSHIRE
NATIONAL WEATHER SERVICE GRAY ME
700 AM EDT SUN AUG 20 2017

MEZ002-005-006-010-012-015-018-020-021-024-026-027-029-201200-
MAINE

CITY           SKY/WX    TMP DP  RH WIND       PRES   REMARKS
PORTLAND       CLOUDY    65  62  90 CALM      29.86R
SANFORD        MOSUNNY   66  62  87 SW5       29.88R
BAR HARBOR     FOG       64  63  96 CALM      29.85R VSB 3/4
WISCASSET      CLOUDY    65  64  97 CALM      29.87R
ROCKLAND       CLOUDY    64  64 100 W3        29.85R FOG
FRYEBURG       SUNNY     67  61  81 SW6       29.87R
LEWISTONAUBURN CLOUDY    63  63 100 CALM      29.87R
AUGUSTA        FOG       64  64 100 CALM      29.86S VSB 3/4
WATERVILLE     FOG       65  64  97 SW3       29.83R VSB 1/4
BANGOR         LGT RAIN  66  64  93 CALM      29.84R
GREENVILLE       N/A     62  60  93 CALM      29.83S
MILLINOCKET    CLOUDY    64  64 100 VRB3      29.83R
HOULTON        CLOUDY    65  65 100 SW8       29.79R FOG
PRESQUE ISLE   CLOUDY    64  63  96 SW3       29.79R
FRENCHVILLE    FOG       61  61 100 VRB5      29.76R VSB<1/4
CARIBOU        CLOUDY    64  63  96 CALM      29.77R
$$

NHZ002-005-008-009-011-012-014-201200-
NEW HAMPSHIRE

CITY           SKY/WX    TMP DP  RH WIND       PRES   REMARKS
PORTSMOUTH     MOSUNNY   67  65  93 W6        29.87R
ROCHESTER      PTSUNNY   69  61  75 NW3       29.88R
NASHUA         SUNNY     67  65  93 CALM      29.91R
MANCHESTER     MOSUNNY   69  60  73 W5        29.89R
CONCORD        SUNNY     64  62  93 CALM      29.91R
LACONIA        SUNNY     67  61  81 S7        29.91R
PLYMOUTH       FAIR      58  57  96 CALM      29.91R FOG
BERLIN         PTSUNNY   59  55  87 CALM      29.90R
WHITEFIELD     CLOUDY    64  60  87 VRB3      29.92R
JAFFREY        CLEAR     65  62  90 VRB5      29.96R
KEENE            N/A    N/A N/A N/A MISG        N/A
LEBANON        FOG       62  61  96 E6        29.92R VSB 1/4
MT WASHINGTON  FOG       46  46 100 W48         N/A  VSB 0
$$

VTZ005-007-008-201200-
VERMONT

CITY           SKY/WX    TMP DP  RH WIND       PRES   REMARKS
ST JOHNSBURY     N/A     62  62 100 MISG      29.90R
MONTPELIER     CLOUDY    64  59  83 W6        29.97R
BURLINGTON     MOCLDY    69  59  70 W5        29.94R
$$

MAZ007-012-024-CTZ003-RIZ002-NYZ038-NYZ072-201200-
SOUTHERN NEW ENGLAND AND NY

CITY           SKY/WX    TMP DP  RH WIND       PRES   REMARKS
BOSTON         MOSUNNY   73  63  70 W10       29.89R
WORCESTER      CLEAR     65  57  75 W15       29.95R
NANTUCKET      SUNNY     70  70 100 W7        29.91R FOG
PROVIDENCE     MOSUNNY   71  65  81 W6        29.93R
HARTFORD       PTCLDY    68  60  75 NW5       29.97R
ALBANY         MOCLDY    66  60  81 SW7       29.99R
NEW YORK CITY  PTCLDY    71  63  75 NW13      30.00R
$$

ANZ081-ANZ082-ANZ150-NHZ014-MEZ023>029-201200-
COASTAL MARINE OBSERVATIONS

STATION/POSITION TIME  TEMP    WIND        PRES    WAVE
                       AIR SEA DIR/SP/G            HT/PER
                 (UTC) (F)     (DEG/KT/KT) (MB)    (FT/S)
MOUNT DESERT ROC 1100   58                 1010.9R
MATINICUS ROCK   1000   60     280/ 12/ 12 1010.0R
ISLE OF SHOALS   1000   68     260/  7/  7 1010.8R
JEFFREYS LEDGE   1006      66                N/A     2/ 7
CASHES LEDGE BUO 0950   68 68              1010.5    4/ 7
GEORGES BANK BUO 0950   66 63              1012.0    5/ 7
$$

.............KEY..............
   WCI - WIND CHILL
   TC  - TEMPERATURE IN CELSIUS
   VSB - VISIBILITY IN MILES
   HX  - HEAT INDEX
   FAIR- INDICATES FEW OR NO CLOUDS BELOW 12,000 FT, WITH NO
         SIGNIFICANT WEATHER AND/OR OBSTRUCTIONS TO VISIBILITY.






USA.gov is the U.S. government's official web portal to all federal, state and local government web resources and services.